Torna al catalogo

INTELSAT 802

AttivoComunicazioniGEO
NORAD 24846·PAYLOAD· XX

Lanciato Jun 25, 1997 da Guiana Space Centre

Loading…

TLE

AggiornatoSource: Space-Track

Epoca: Sep 14, 2026, 06:46 UTC

1 24846U 97031A   26257.28261767 -.00000171  00000-0  00000-0 0  9995
2 24846  11.5721  42.1769 0022738 291.5291  83.9684  0.98109868105815

Traccia INTELSAT 802 in tempo reale con AllMySat

Download on the App Store